Location: Piotrkow Trybunalski
(51.4000°N, 19.6830°E)
Time: 07:25:33
(UTC+02:00)

STRAND 1 - Pass Details

Date: 25 February 2024
Orbit: 764 x 779 km, 98.4° (Epoch: 24 April)

Event Time Altitude Azimuth Distance (km) Brightness Sun altitude
Rises 19:21:08 0° 9° (N) 3,274 ? -20.5°
Reaches altitude 10° 19:23:36 10° 1° (N) 2,339 ? -20.9°
Maximum altitude 19:28:17 37° 296° (WNW) 1,206 ? -21.6°
Drops below altitude 10° 19:32:55 10° 231° (SW) 2,316 ? -22.3°
Sets 19:35:21 0° 223° (SW) 3,237 ? -22.7°
